Station Historical Data
Daily Summary for June 10, 2017 Units:  English    Metric   Both
« Previous Day
Next Day »
Daily Weekly Monthly Yearly Custom
  High: Low: Average:
Temperature: 76.2 °F 59.2 °F 69.3 °F
Dew Point: 62.2 °F 52.7 °F 58.1 °F
Humidity: 91% 54% 69%
Wind Speed: 14.0mph 0.0mph 4mph
Wind Gust: 22.0mph - -
Wind- - SW
Pressure: 29.92 in 29.84 in -
Precipitation: 0.00 in    
Historical Graphs
 
 
Tabular Data for June 10, 2017
Time Temperature Dew Point Pressure Wind Wind Speed Wind Gust Humidity Rainfall Rate (Hourly)
00:04 64.1 °F 53.7 °F 29.85 in Calm   2.0 mph 69% 0.00 in
00:09 63.8 °F 53.4 °F 29.85 in SW 1.0 mph 3.0 mph 69% 0.00 in
00:14 63.8 °F 53.4 °F 29.85 in SW 1.0 mph 3.0 mph 69% 0.00 in
00:19 63.8 °F 53.4 °F 29.85 in Calm   3.0 mph 69% 0.00 in
00:24 63.6 °F 53.2 °F 29.85 in Calm     69% 0.00 in
00:29 63.2 °F 53.3 °F 29.85 in Calm     70% 0.00 in
00:34 62.7 °F 53.2 °F 29.85 in Calm     71% 0.00 in
00:39 62.4 °F 52.9 °F 29.85 in Calm     71% 0.00 in
00:44 61.9 °F 52.8 °F 29.85 in Calm     72% 0.00 in
00:49 61.4 °F 53.0 °F 29.84 in Calm     74% 0.00 in
00:54 61.1 °F 52.7 °F 29.85 in Calm     74% 0.00 in
00:59 60.8 °F 52.8 °F 29.85 in Calm     75% 0.00 in
01:04 60.7 °F 52.7 °F 29.85 in Calm     75% 0.00 in
01:09 60.5 °F 52.9 °F 29.85 in Calm     76% 0.00 in
01:14 60.5 °F 52.9 °F 29.85 in Calm     76% 0.00 in
01:19 60.7 °F 53.1 °F 29.85 in Calm     76% 0.00 in
01:24 61.0 °F 53.4 °F 29.84 in Calm     76% 0.00 in
01:29 61.1 °F 53.1 °F 29.84 in Calm     75% 0.00 in
01:34 61.0 °F 53.4 °F 29.84 in Calm     76% 0.00 in
01:39 61.0 °F 53.0 °F 29.84 in Calm     75% 0.00 in
01:44 60.9 °F 53.3 °F 29.85 in Calm     76% 0.00 in
01:49 60.8 °F 53.5 °F 29.85 in Calm     77% 0.00 in
01:54 60.6 °F 53.3 °F 29.85 in Calm     77% 0.00 in
01:59 60.7 °F 53.4 °F 29.85 in Calm     77% 0.00 in
02:04 60.6 °F 53.3 °F 29.85 in Calm     77% 0.00 in
02:09 60.6 °F 53.3 °F 29.84 in Calm     77% 0.00 in
02:14 60.7 °F 53.4 °F 29.84 in Calm     77% 0.00 in
02:19 60.8 °F 53.9 °F 29.84 in Calm     78% 0.00 in
02:24 60.9 °F 54.3 °F 29.85 in Calm     79% 0.00 in
02:29 61.1 °F 54.2 °F 29.85 in Calm     78% 0.00 in
02:34 61.3 °F 54.4 °F 29.86 in Calm     78% 0.00 in
02:39 61.6 °F 55.0 °F 29.85 in Calm     79% 0.00 in
02:44 61.4 °F 55.5 °F 29.85 in Calm     81% 0.01 in
02:49 61.2 °F 55.3 °F 29.85 in Calm     81% 0.01 in
02:54 60.9 °F 55.4 °F 29.85 in Calm     82% 0.01 in
02:59 60.7 °F 55.5 °F 29.85 in Calm     83% 0.01 in
03:04 60.5 °F 55.6 °F 29.85 in Calm     84% 0.01 in
03:09 60.2 °F 55.3 °F 29.85 in Calm     84% 0.01 in
03:14 59.8 °F 55.3 °F 29.84 in Calm     85% 0.01 in
03:19 59.5 °F 55.3 °F 29.84 in Calm     86% 0.01 in
03:24 59.5 °F 55.6 °F 29.84 in Calm     87% 0.01 in
03:29 59.5 °F 55.3 °F 29.84 in Calm     86% 0.01 in
03:34 59.4 °F 55.2 °F 29.84 in Calm     86% 0.01 in
03:39 59.3 °F 55.1 °F 29.85 in Calm     86% 0.01 in
03:44 59.3 °F 55.4 °F 29.84 in Calm     87% 0.00 in
03:49 59.2 °F 55.6 °F 29.85 in Calm     88% 0.00 in
03:54 59.2 °F 55.6 °F 29.85 in Calm     88% 0.00 in
03:59 59.2 °F 56.0 °F 29.84 in Calm     89% 0.00 in
04:04 59.2 °F 56.0 °F 29.84 in Calm     89% 0.00 in
04:09 59.2 °F 56.0 °F 29.85 in Calm     89% 0.00 in
04:14 59.2 °F 56.0 °F 29.85 in Calm     89% 0.00 in
04:19 59.3 °F 56.4 °F 29.85 in Calm     90% 0.00 in
04:24 59.4 °F 56.5 °F 29.84 in Calm     90% 0.00 in
04:29 59.6 °F 56.7 °F 29.85 in Calm     90% 0.00 in
04:34 59.7 °F 56.8 °F 29.85 in Calm     90% 0.00 in
04:39 59.7 °F 56.8 °F 29.85 in Calm     90% 0.00 in
04:44 59.8 °F 57.2 °F 29.85 in Calm     91% 0.00 in
04:49 60.0 °F 57.4 °F 29.85 in Calm     91% 0.00 in
04:54 60.3 °F 57.4 °F 29.85 in Calm     90% 0.00 in
04:59 60.3 °F 57.4 °F 29.84 in Calm     90% 0.00 in
05:04 60.3 °F 57.4 °F 29.84 in Calm     90% 0.00 in
05:09 60.4 °F 57.5 °F 29.84 in Calm     90% 0.00 in
05:14 60.3 °F 57.4 °F 29.84 in Calm     90% 0.00 in
05:19 60.3 °F 57.4 °F 29.85 in Calm     90% 0.00 in
05:24 60.5 °F 57.6 °F 29.85 in Calm     90% 0.00 in
05:29 60.6 °F 57.7 °F 29.85 in Calm     90% 0.00 in
05:39 60.6 °F 57.3 °F 29.86 in Calm     89% 0.00 in
05:44 60.6 °F 57.3 °F 29.86 in Calm     89% 0.00 in
05:49 60.4 °F 57.1 °F 29.85 in Calm   5.0 mph 89% 0.00 in
05:54 60.6 °F 56.7 °F 29.86 in South 1.0 mph 5.0 mph 87% 0.00 in
05:59 60.9 °F 56.4 °F 29.86 in South 1.0 mph 5.0 mph 85% 0.00 in
06:04 61.3 °F 56.4 °F 29.86 in South 1.0 mph 4.0 mph 84% 0.00 in
06:09 61.3 °F 56.1 °F 29.86 in South 1.0 mph 3.0 mph 83% 0.00 in
06:14 61.3 °F 55.8 °F 29.87 in Calm   1.0 mph 82% 0.00 in
06:19 61.2 °F 55.7 °F 29.87 in Calm     82% 0.00 in
06:24 61.0 °F 55.8 °F 29.87 in Calm     83% 0.00 in
06:29 60.9 °F 55.7 °F 29.87 in Calm     83% 0.00 in
06:34 61.2 °F 56.0 °F 29.87 in Calm   2.0 mph 83% 0.00 in
06:39 61.6 °F 56.4 °F 29.87 in Calm     83% 0.00 in
06:44 62.0 °F 56.8 °F 29.86 in Calm   2.0 mph 83% 0.00 in
06:49 62.5 °F 56.9 °F 29.86 in Calm   2.0 mph 82% 0.00 in
06:59 63.5 °F 57.2 °F 29.87 in Calm     80% 0.00 in
07:04 63.9 °F 57.3 °F 29.87 in SSW 1.0 mph 3.0 mph 79% 0.00 in
07:09 64.1 °F 57.5 °F 29.87 in Calm   3.0 mph 79% 0.00 in
07:14 64.3 °F 57.6 °F 29.87 in Calm   3.0 mph 79% 0.00 in
07:19 64.7 °F 57.7 °F 29.87 in South 1.0 mph 3.0 mph 78% 0.00 in
07:24 64.9 °F 57.9 °F 29.87 in South 1.0 mph 3.0 mph 78% 0.00 in
07:29 65.4 °F 58.0 °F 29.87 in South 2.0 mph 4.0 mph 77% 0.00 in
07:39 66.2 °F 58.4 °F 29.87 in SSW 1.0 mph 5.0 mph 76% 0.00 in
07:44 66.7 °F 58.5 °F 29.87 in SSW 2.0 mph 5.0 mph 75% 0.00 in
07:49 67.2 °F 58.6 °F 29.88 in SSW 2.0 mph 6.0 mph 74% 0.00 in
07:54 67.8 °F 59.2 °F 29.88 in SSW 2.0 mph 6.0 mph 74% 0.00 in
07:59 68.3 °F 58.9 °F 29.88 in SW 2.0 mph 7.0 mph 72% 0.00 in
08:04 68.8 °F 59.4 °F 29.88 in WSW 5.0 mph 7.0 mph 72% 0.00 in
08:09 69.0 °F 59.6 °F 29.88 in SW 1.0 mph 6.0 mph 72% 0.00 in
08:14 69.3 °F 59.1 °F 29.88 in SW 3.0 mph 7.0 mph 70% 0.00 in
08:19 69.3 °F 59.1 °F 29.88 in SW 4.0 mph 9.0 mph 70% 0.00 in
08:24 69.5 °F 58.9 °F 29.88 in SSW 3.0 mph 12.0 mph 69% 0.00 in
08:29 69.6 °F 58.6 °F 29.88 in SW 5.0 mph 12.0 mph 68% 0.00 in
08:34 69.8 °F 58.8 °F 29.89 in SW 5.0 mph 13.0 mph 68% 0.00 in
08:39 70.1 °F 59.0 °F 29.89 in WSW 3.0 mph 11.0 mph 68% 0.00 in
08:44 70.6 °F 59.1 °F 29.89 in SW 6.0 mph 11.0 mph 67% 0.00 in
08:49 70.6 °F 58.7 °F 29.89 in SW 6.0 mph 16.0 mph 66% 0.00 in
08:54 71.0 °F 58.6 °F 29.89 in SSW 8.0 mph 11.0 mph 65% 0.00 in
08:59 71.2 °F 59.3 °F 29.89 in WSW 8.0 mph 14.0 mph 66% 0.00 in
09:04 71.1 °F 59.2 °F 29.89 in WSW 4.0 mph 13.0 mph 66% 0.00 in
09:09 71.2 °F 58.8 °F 29.89 in WSW 10.0 mph 14.0 mph 65% 0.00 in
09:14 71.6 °F 59.2 °F 29.89 in WSW 6.0 mph 14.0 mph 65% 0.00 in
09:19 71.5 °F 58.7 °F 29.89 in WSW 6.0 mph 14.0 mph 64% 0.00 in
09:24 71.6 °F 58.8 °F 29.89 in SW 7.0 mph 14.0 mph 64% 0.00 in
09:29 71.6 °F 59.2 °F 29.89 in WSW 6.0 mph 13.0 mph 65% 0.00 in
09:34 71.9 °F 59.1 °F 29.89 in West 4.0 mph 13.0 mph 64% 0.00 in
09:39 71.9 °F 59.1 °F 29.90 in WSW 7.0 mph 14.0 mph 64% 0.00 in
09:44 71.7 °F 58.9 °F 29.90 in WSW 7.0 mph 16.0 mph 64% 0.00 in
09:49 72.1 °F 59.2 °F 29.90 in SW 4.0 mph 12.0 mph 64% 0.00 in
09:54 72.0 °F 59.2 °F 29.90 in West 9.0 mph 19.0 mph 64% 0.00 in
09:59 71.7 °F 58.9 °F 29.90 in WSW 5.0 mph 14.0 mph 64% 0.00 in
10:04 71.5 °F 58.7 °F 29.90 in SW 8.0 mph 22.0 mph 64% 0.00 in
10:09 71.6 °F 58.8 °F 29.90 in WSW 9.0 mph 22.0 mph 64% 0.00 in
10:14 71.5 °F 59.1 °F 29.90 in WSW 9.0 mph 17.0 mph 65% 0.00 in
10:19 71.7 °F 59.7 °F 29.90 in WSW 8.0 mph 17.0 mph 66% 0.00 in
10:24 71.7 °F 59.3 °F 29.91 in WSW 8.0 mph 17.0 mph 65% 0.00 in
10:29 71.5 °F 59.5 °F 29.91 in SW 9.0 mph 22.0 mph 66% 0.00 in
10:34 71.9 °F 60.3 °F 29.90 in SW 11.0 mph 14.0 mph 67% 0.00 in
10:39 71.6 °F 59.6 °F 29.90 in SW 8.0 mph 18.0 mph 66% 0.00 in
10:44 71.4 °F 59.4 °F 29.90 in SW 9.0 mph 18.0 mph 66% 0.00 in
10:49 71.1 °F 59.6 °F 29.90 in SW 9.0 mph 21.0 mph 67% 0.00 in
10:54 71.2 °F 59.7 °F 29.90 in South 4.0 mph 15.0 mph 67% 0.00 in
10:59 71.3 °F 60.2 °F 29.91 in SSW 4.0 mph 20.0 mph 68% 0.00 in
11:04 70.8 °F 59.7 °F 29.91 in WSW 9.0 mph 19.0 mph 68% 0.00 in
11:09 71.4 °F 59.9 °F 29.90 in WSW 9.0 mph 19.0 mph 67% 0.00 in
11:14 71.4 °F 59.9 °F 29.90 in SW 9.0 mph 18.0 mph 67% 0.00 in
11:19 71.5 °F 60.4 °F 29.91 in SW 8.0 mph 18.0 mph 68% 0.00 in
11:24 71.6 °F 60.1 °F 29.91 in SW 14.0 mph 16.0 mph 67% 0.00 in
11:29 72.3 °F 61.1 °F 29.91 in SW 11.0 mph 17.0 mph 68% 0.00 in
11:34 72.0 °F 60.9 °F 29.91 in SSW 4.0 mph 16.0 mph 68% 0.00 in
11:39 71.6 °F 60.1 °F 29.91 in WSW 9.0 mph 18.0 mph 67% 0.00 in
11:44 71.9 °F 60.3 °F 29.92 in WSW 9.0 mph 18.0 mph 67% 0.00 in
11:49 72.0 °F 60.0 °F 29.92 in WSW 8.0 mph 18.0 mph 66% 0.00 in
11:54 71.9 °F 60.3 °F 29.92 in WSW 9.0 mph 19.0 mph 67% 0.00 in
11:59 71.9 °F 59.9 °F 29.91 in WSW 5.0 mph 18.0 mph 66% 0.00 in
12:04 71.7 °F 59.3 °F 29.91 in SSW 7.0 mph 18.0 mph 65% 0.00 in
12:09 72.2 °F 60.2 °F 29.92 in WSW 10.0 mph 18.0 mph 66% 0.00 in
12:14 72.4 °F 60.0 °F 29.92 in WSW 9.0 mph 16.0 mph 65% 0.00 in
12:19 72.4 °F 60.8 °F 29.92 in WSW 6.0 mph 17.0 mph 67% 0.00 in
12:24 72.6 °F 60.2 °F 29.92 in WSW 5.0 mph 16.0 mph 65% 0.00 in
12:29 73.0 °F 60.5 °F 29.92 in WSW 9.0 mph 14.0 mph 65% 0.00 in
12:34 73.2 °F 60.7 °F 29.92 in WSW 6.0 mph 16.0 mph 65% 0.00 in
12:39 73.0 °F 60.5 °F 29.92 in WSW 8.0 mph 16.0 mph 65% 0.00 in
12:44 73.7 °F 60.8 °F 29.92 in WSW 8.0 mph 15.0 mph 64% 0.00 in
12:49 73.9 °F 61.0 °F 29.92 in WSW 7.0 mph 15.0 mph 64% 0.00 in
12:54 74.2 °F 60.8 °F 29.92 in WSW 7.0 mph 15.0 mph 63% 0.00 in
12:59 73.9 °F 61.0 °F 29.92 in WSW 8.0 mph 18.0 mph 64% 0.00 in
13:04 74.0 °F 60.2 °F 29.92 in West 6.0 mph 14.0 mph 62% 0.00 in
13:09 74.0 °F 60.2 °F 29.92 in WSW 9.0 mph 17.0 mph 62% 0.00 in
13:14 74.3 °F 60.9 °F 29.92 in SW 8.0 mph 16.0 mph 63% 0.00 in
13:19 74.5 °F 60.6 °F 29.92 in SW 11.0 mph 18.0 mph 62% 0.00 in
13:24 75.0 °F 60.6 °F 29.92 in SSW 13.0 mph 15.0 mph 61% 0.00 in
13:29 74.5 °F 60.6 °F 29.92 in South 10.0 mph 19.0 mph 62% 0.00 in
13:34 75.1 °F 60.7 °F 29.91 in SW 9.0 mph 15.0 mph 61% 0.00 in
13:39 75.3 °F 60.5 °F 29.92 in WSW 8.0 mph 19.0 mph 60% 0.00 in
13:44 75.8 °F 60.9 °F 29.91 in WSW 8.0 mph 19.0 mph 60% 0.00 in
13:49 75.7 °F 60.4 °F 29.91 in WSW 7.0 mph 16.0 mph 59% 0.00 in
13:54 75.4 °F 61.0 °F 29.91 in WSW 7.0 mph 17.0 mph 61% 0.00 in
13:59 75.7 °F 61.3 °F 29.91 in West 8.0 mph 12.0 mph 61% 0.00 in
14:04 76.1 °F 62.1 °F 29.91 in WSW 4.0 mph 15.0 mph 62% 0.00 in
14:09 75.6 °F 61.2 °F 29.91 in WSW 8.0 mph 15.0 mph 61% 0.00 in
14:14 75.1 °F 61.2 °F 29.91 in WSW 5.0 mph 15.0 mph 62% 0.00 in
14:19 74.8 °F 60.9 °F 29.91 in WSW 7.0 mph 13.0 mph 62% 0.00 in
14:24 74.8 °F 62.2 °F 29.91 in WSW 6.0 mph 14.0 mph 65% 0.00 in
14:29 74.8 °F 62.2 °F 29.91 in SSW 6.0 mph 12.0 mph 65% 0.00 in
14:34 74.7 °F 61.7 °F 29.92 in West 5.0 mph 12.0 mph 64% 0.00 in
14:39 74.0 °F 61.0 °F 29.91 in WSW 7.0 mph 14.0 mph 64% 0.00 in
14:44 74.8 °F 61.8 °F 29.91 in WSW 7.0 mph 14.0 mph 64% 0.00 in
14:49 74.4 °F 61.4 °F 29.91 in WSW 7.0 mph 16.0 mph 64% 0.00 in
14:54 74.8 °F 61.8 °F 29.91 in WNW 8.0 mph 13.0 mph 64% 0.00 in
14:59 74.0 °F 60.6 °F 29.91 in WSW 6.0 mph 14.0 mph 63% 0.00 in
15:04 74.0 °F 60.2 °F 29.91 in WNW 5.0 mph 12.0 mph 62% 0.00 in
15:09 74.8 °F 61.4 °F 29.91 in WSW 7.0 mph 15.0 mph 63% 0.00 in
15:14 74.4 °F 60.1 °F 29.92 in SW 8.0 mph 15.0 mph 61% 0.00 in
15:19 74.1 °F 60.7 °F 29.91 in SW 8.0 mph 17.0 mph 63% 0.00 in
15:24 74.4 °F 61.0 °F 29.91 in SW 7.0 mph 17.0 mph 63% 0.00 in
15:29 75.4 °F 61.0 °F 29.91 in WSW 6.0 mph 15.0 mph 61% 0.00 in
15:34 76.0 °F 61.6 °F 29.91 in West 9.0 mph 15.0 mph 61% 0.00 in
15:39 75.1 °F 60.7 °F 29.91 in SW 4.0 mph 17.0 mph 61% 0.00 in
15:44 74.8 °F 60.4 °F 29.91 in WSW 9.0 mph 18.0 mph 61% 0.00 in
15:49 74.8 °F 60.0 °F 29.91 in South 9.0 mph 15.0 mph 60% 0.00 in
15:54 75.0 °F 60.2 °F 29.91 in WSW 11.0 mph 17.0 mph 60% 0.00 in
15:59 75.8 °F 60.9 °F 29.91 in West 6.0 mph 16.0 mph 60% 0.00 in
16:04 75.8 °F 60.4 °F 29.91 in SW 9.0 mph 14.0 mph 59% 0.00 in
16:09 75.6 °F 59.8 °F 29.91 in WSW 3.0 mph 14.0 mph 58% 0.00 in
16:14 75.7 °F 59.9 °F 29.91 in WSW 8.0 mph 19.0 mph 58% 0.00 in
16:19 76.2 °F 60.3 °F 29.91 in SW 7.0 mph 19.0 mph 58% 0.00 in
16:24 75.8 °F 59.5 °F 29.91 in WSW 7.0 mph 16.0 mph 57% 0.00 in
16:29 75.7 °F 60.4 °F 29.91 in WSW 7.0 mph 13.0 mph 59% 0.00 in
16:34 75.7 °F 59.9 °F 29.90 in WSW 7.0 mph 14.0 mph 58% 0.00 in
16:39 75.6 °F 59.3 °F 29.90 in WSW 8.0 mph 15.0 mph 57% 0.00 in
16:44 75.6 °F 59.3 °F 29.90 in WSW 9.0 mph 17.0 mph 57% 0.00 in
16:49 75.6 °F 59.8 °F 29.90 in WSW 8.0 mph 17.0 mph 58% 0.00 in
16:54 75.6 °F 59.8 °F 29.90 in SW 7.0 mph 14.0 mph 58% 0.00 in
16:59 75.1 °F 59.3 °F 29.90 in West 5.0 mph 13.0 mph 58% 0.00 in
17:04 75.0 °F 59.7 °F 29.89 in SW 6.0 mph 16.0 mph 59% 0.00 in
17:09 75.3 °F 59.0 °F 29.89 in West 3.0 mph 12.0 mph 57% 0.00 in
17:14 75.5 °F 59.2 °F 29.89 in SW 8.0 mph 11.0 mph 57% 0.00 in
17:19 75.8 °F 59.0 °F 29.89 in WSW 6.0 mph 13.0 mph 56% 0.00 in
17:24 76.1 °F 59.3 °F 29.89 in WSW 7.0 mph 17.0 mph 56% 0.00 in
17:29 75.7 °F 58.4 °F 29.90 in WSW 8.0 mph 17.0 mph 55% 0.00 in
17:34 75.4 °F 59.1 °F 29.89 in WSW 7.0 mph 17.0 mph 57% 0.00 in
17:39 75.3 °F 59.0 °F 29.90 in WSW 10.0 mph 14.0 mph 57% 0.00 in
17:44 74.9 °F 58.6 °F 29.89 in WSW 7.0 mph 13.0 mph 57% 0.00 in
17:49 75.1 °F 58.8 °F 29.89 in WSW 7.0 mph 13.0 mph 57% 0.00 in
17:54 75.4 °F 59.1 °F 29.89 in WSW 7.0 mph 13.0 mph 57% 0.00 in
17:59 75.3 °F 58.5 °F 29.89 in WSW 7.0 mph 12.0 mph 56% 0.00 in
18:04 75.3 °F 58.5 °F 29.89 in SW 8.0 mph 15.0 mph 56% 0.00 in
18:14 74.9 °F 58.1 °F 29.89 in SW 8.0 mph 16.0 mph 56% 0.00 in
18:19 75.0 °F 58.2 °F 29.89 in WSW 7.0 mph 16.0 mph 56% 0.00 in
18:24 75.0 °F 58.2 °F 29.89 in SW 6.0 mph 14.0 mph 56% 0.00 in
18:29 75.1 °F 58.3 °F 29.89 in WNW 4.0 mph 21.0 mph 56% 0.00 in
18:34 75.8 °F 58.5 °F 29.89 in West 6.0 mph 11.0 mph 55% 0.00 in
18:39 76.0 °F 58.2 °F 29.89 in WSW 8.0 mph 14.0 mph 54% 0.00 in
18:44 75.8 °F 58.5 °F 29.89 in WSW 9.0 mph 10.0 mph 55% 0.00 in
18:49 75.6 °F 58.3 °F 29.89 in WSW 6.0 mph 11.0 mph 55% 0.00 in
18:54 75.3 °F 58.5 °F 29.89 in WSW 5.0 mph 11.0 mph 56% 0.00 in
18:59 75.2 °F 58.4 °F 29.89 in WSW 5.0 mph 11.0 mph 56% 0.00 in
19:04 74.8 °F 59.0 °F 29.89 in WSW 5.0 mph 11.0 mph 58% 0.00 in
19:09 74.7 °F 58.5 °F 29.89 in WSW 5.0 mph 11.0 mph 57% 0.00 in
19:14 74.5 °F 58.3 °F 29.89 in West 1.0 mph 8.0 mph 57% 0.00 in
19:19 74.4 °F 58.7 °F 29.89 in WSW 4.0 mph 11.0 mph 58% 0.00 in
19:24 74.4 °F 58.7 °F 29.89 in WSW 4.0 mph 11.0 mph 58% 0.00 in
19:29 74.4 °F 58.7 °F 29.89 in West 3.0 mph 14.0 mph 58% 0.00 in
19:34 74.3 °F 58.1 °F 29.89 in WSW 3.0 mph 13.0 mph 57% 0.00 in
19:39 74.1 °F 58.4 °F 29.89 in WSW 3.0 mph 6.0 mph 58% 0.00 in
19:44 73.9 °F 58.7 °F 29.89 in SW 1.0 mph 6.0 mph 59% 0.00 in
19:49 73.7 °F 58.5 °F 29.89 in West 4.0 mph 7.0 mph 59% 0.00 in
19:54 73.3 °F 58.6 °F 29.89 in SW 3.0 mph 7.0 mph 60% 0.00 in
19:59 73.0 °F 58.8 °F 29.89 in SW 4.0 mph 7.0 mph 61% 0.00 in
20:04 72.6 °F 58.4 °F 29.89 in SW 4.0 mph 8.0 mph 61% 0.00 in
20:09 72.4 °F 58.2 °F 29.89 in WSW 3.0 mph 6.0 mph 61% 0.00 in
20:14 72.1 °F 58.4 °F 29.89 in WSW 5.0 mph 6.0 mph 62% 0.00 in
20:19 72.0 °F 58.3 °F 29.89 in SW 4.0 mph 8.0 mph 62% 0.00 in
20:24 71.9 °F 58.2 °F 29.89 in SW 4.0 mph 11.0 mph 62% 0.00 in
20:29 71.6 °F 58.3 °F 29.89 in SW 4.0 mph 11.0 mph 63% 0.00 in
20:34 71.2 °F 58.0 °F 29.89 in SW 4.0 mph 11.0 mph 63% 0.00 in
20:39 71.0 °F 57.8 °F 29.88 in WSW 5.0 mph 11.0 mph 63% 0.00 in
20:44 70.9 °F 57.7 °F 29.88 in WSW 4.0 mph 9.0 mph 63% 0.00 in
20:49 70.8 °F 57.6 °F 29.88 in SW 2.0 mph 7.0 mph 63% 0.00 in
20:54 70.8 °F 58.0 °F 29.88 in SW 3.0 mph 8.0 mph 64% 0.00 in
20:59 71.0 °F 57.8 °F 29.88 in SW 3.0 mph 8.0 mph 63% 0.00 in
21:04 71.1 °F 57.9 °F 29.88 in South 5.0 mph 7.0 mph 63% 0.00 in
21:09 71.2 °F 57.5 °F 29.88 in SW 1.0 mph 7.0 mph 62% 0.00 in
21:14 71.3 °F 57.6 °F 29.89 in SW 4.0 mph 6.0 mph 62% 0.00 in
21:19 71.4 °F 57.7 °F 29.89 in SSW 2.0 mph 7.0 mph 62% 0.00 in
21:24 71.4 °F 57.7 °F 29.89 in SW 4.0 mph 9.0 mph 62% 0.00 in
21:29 71.7 °F 58.0 °F 29.89 in SW 4.0 mph 9.0 mph 62% 0.00 in
21:34 71.7 °F 58.0 °F 29.89 in SW 4.0 mph 9.0 mph 62% 0.00 in
21:39 71.9 °F 58.2 °F 29.89 in SW 3.0 mph 7.0 mph 62% 0.00 in
21:44 71.9 °F 58.2 °F 29.89 in SW 3.0 mph 7.0 mph 62% 0.00 in
21:49 71.7 °F 58.0 °F 29.89 in South 2.0 mph 4.0 mph 62% 0.00 in
21:54 71.7 °F 58.0 °F 29.89 in WSW 4.0 mph 6.0 mph 62% 0.00 in
21:59 71.7 °F 58.0 °F 29.89 in SW 1.0 mph 5.0 mph 62% 0.00 in
22:04 71.7 °F 58.0 °F 29.89 in WSW 1.0 mph 4.0 mph 62% 0.00 in
22:09 71.7 °F 58.0 °F 29.89 in SW 1.0 mph 3.0 mph 62% 0.00 in
22:14 71.6 °F 57.9 °F 29.89 in SW 2.0 mph 2.0 mph 62% 0.00 in
22:19 71.6 °F 57.9 °F 29.89 in SSW 1.0 mph 4.0 mph 62% 0.00 in
22:24 71.9 °F 58.2 °F 29.89 in SW 2.0 mph 4.0 mph 62% 0.00 in
22:29 72.0 °F 58.3 °F 29.89 in SW 2.0 mph 4.0 mph 62% 0.00 in
22:34 71.9 °F 58.2 °F 29.89 in SW 1.0 mph 4.0 mph 62% 0.00 in
22:39 71.9 °F 58.2 °F 29.89 in SW 1.0 mph 3.0 mph 62% 0.00 in
22:44 71.7 °F 58.0 °F 29.89 in SSW 1.0 mph 3.0 mph 62% 0.00 in
22:49 71.6 °F 57.9 °F 29.89 in SSW 1.0 mph 4.0 mph 62% 0.00 in
22:54 71.7 °F 58.0 °F 29.89 in Calm   3.0 mph 62% 0.00 in
22:59 71.5 °F 57.8 °F 29.89 in Calm   3.0 mph 62% 0.00 in
23:04 71.3 °F 58.1 °F 29.89 in SW 3.0 mph 5.0 mph 63% 0.00 in
23:09 71.4 °F 58.1 °F 29.89 in SSW 1.0 mph 6.0 mph 63% 0.00 in
23:14 71.6 °F 58.3 °F 29.89 in SW 1.0 mph 3.0 mph 63% 0.00 in
23:19 71.8 °F 58.5 °F 29.89 in SSW 1.0 mph 4.0 mph 63% 0.00 in
23:24 71.8 °F 59.0 °F 29.89 in WSW 4.0 mph 5.0 mph 64% 0.00 in
23:29 72.1 °F 59.7 °F 29.89 in SSW 2.0 mph 5.0 mph 65% 0.00 in
23:34 72.4 °F 60.0 °F 29.89 in SSW 3.0 mph 6.0 mph 65% 0.00 in
23:39 72.9 °F 60.4 °F 29.89 in SSW 3.0 mph 9.0 mph 65% 0.00 in
23:44 73.4 °F 60.5 °F 29.89 in WSW 6.0 mph 8.0 mph 64% 0.00 in
23:49 74.2 °F 61.2 °F 29.89 in SSW 4.0 mph 10.0 mph 64% 0.00 in
23:54 74.6 °F 61.2 °F 29.89 in SSW 8.0 mph 12.0 mph 63% 0.00 in
23:59 74.7 °F 61.3 °F 29.90 in SW 4.0 mph 12.0 mph 63% 0.00 in
Buffalo, New York, USA
Compliments of Weather Underground - 2.5 mb